Time,TemperatureF,DewpointF,PressureIn,WindDirection,WindDirectionDegrees,WindSpeedMPH,WindSpeedGustMPH,Humidity,HourlyPrecipIn,Conditions,Clouds,dailyrainin,SoftwareType,DateUTC
2013-07-31 00:00:00,71.3,69.2,30.01,NNW,330,0.0,1.0,93,0.00,,FEW025,0.00,VWS V14.01,2013-07-31 05:00:00,
2013-07-31 00:05:00,71.3,69.2,30.01,NNW,330,0.0,0.0,93,0.00,,FEW025,0.00,VWS V14.01,2013-07-31 05:05:00,
2013-07-31 00:10:00,71.4,69.3,30.01,NNW,329,0.0,0.0,93,0.00,,FEW025,0.00,VWS V14.01,2013-07-31 05:10:00,
2013-07-31 00:15:00,71.4,69.3,30.01,NNW,329,0.0,1.0,93,0.00,,FEW025,0.00,VWS V14.01,2013-07-31 05:15:00,
2013-07-31 00:20:00,71.3,69.2,30.01,NNW,329,0.0,0.0,93,0.00,,FEW025,0.00,VWS V14.01,2013-07-31 05:20:00,
2013-07-31 00:25:00,71.1,69.0,30.01,NNW,329,0.0,0.0,93,0.00,,FEW025,0.00,VWS V14.01,2013-07-31 05:25:00,
2013-07-31 00:30:00,71.0,68.9,30.01,NNW,329,0.0,0.0,93,0.00,,FEW025,0.00,VWS V14.01,2013-07-31 05:30:00,
2013-07-31 00:35:00,71.0,69.2,30.00,NNW,329,0.0,0.0,94,0.00,,SCT030,0.00,VWS V14.01,2013-07-31 05:35:00,
2013-07-31 00:40:00,71.0,68.9,30.00,NNW,329,0.0,0.0,93,0.00,,SCT030,0.00,VWS V14.01,2013-07-31 05:40:00,
2013-07-31 00:45:00,70.8,68.7,30.00,NNW,329,0.0,0.0,93,0.00,,SCT030,0.00,VWS V14.01,2013-07-31 05:45:00,
2013-07-31 00:50:00,70.7,68.9,30.00,NNW,329,0.0,0.0,94,0.00,,SCT030,0.00,VWS V14.01,2013-07-31 05:50:00,
2013-07-31 00:55:00,70.7,68.9,30.00,NNW,328,0.0,0.0,94,0.00,,SCT030,0.00,VWS V14.01,2013-07-31 05:55:00,
2013-07-31 01:00:00,70.7,68.9,30.00,NNW,328,0.0,0.0,94,0.00,,SCT030,0.00,VWS V14.01,2013-07-31 06:00:00,
2013-07-31 01:05:00,70.7,68.9,30.00,NNW,328,0.0,0.0,94,0.00,,SCT030,0.00,VWS V14.01,2013-07-31 06:05:00,
2013-07-31 01:10:00,70.6,68.8,30.00,NNW,328,0.0,0.0,94,0.00,,SCT030,0.00,VWS V14.01,2013-07-31 06:10:00,
2013-07-31 01:15:00,70.4,68.6,29.99,NNW,328,0.0,0.0,94,0.00,,SCT030,0.00,VWS V14.01,2013-07-31 06:15:00,
2013-07-31 01:20:00,70.3,68.5,29.99,NNW,328,0.0,0.0,94,0.00,,SCT030,0.00,VWS V14.01,2013-07-31 06:20:00,
2013-07-31 01:25:00,70.2,68.4,29.99,NNW,328,0.0,0.0,94,0.00,,SCT030,0.00,VWS V14.01,2013-07-31 06:25:00,
2013-07-31 01:30:00,70.2,68.4,29.99,NNW,327,0.0,0.0,94,0.00,,SCT030,0.00,VWS V14.01,2013-07-31 06:30:00,
2013-07-31 01:35:00,70.2,68.4,30.00,NNW,328,0.0,0.0,94,0.00,,FEW250,0.00,VWS V14.01,2013-07-31 06:35:00,
2013-07-31 01:40:00,70.2,68.4,29.99,NW,319,1.0,1.0,94,0.00,,FEW250,0.00,VWS V14.01,2013-07-31 06:40:00,
2013-07-31 01:45:00,70.2,68.4,30.00,NNW,328,0.0,2.0,94,0.00,,FEW250,0.00,VWS V14.01,2013-07-31 06:45:00,
2013-07-31 01:50:00,70.2,68.4,29.99,NNW,338,0.0,2.0,94,0.00,,FEW250,0.00,VWS V14.01,2013-07-31 06:50:00,
2013-07-31 01:55:00,70.1,68.3,29.99,NNW,338,0.0,1.0,94,0.00,,FEW250,0.00,VWS V14.01,2013-07-31 06:55:00,
2013-07-31 02:00:00,70.0,68.2,29.99,NW,314,0.0,1.0,94,0.00,,FEW250,0.00,VWS V14.01,2013-07-31 07:00:00,
2013-07-31 02:05:00,70.0,68.2,29.99,NW,315,0.0,0.0,94,0.00,,FEW250,0.00,VWS V14.01,2013-07-31 07:05:00,
2013-07-31 02:10:00,69.9,68.1,29.99,NW,314,0.0,0.0,94,0.00,,FEW250,0.00,VWS V14.01,2013-07-31 07:10:00,
2013-07-31 02:15:00,69.8,68.0,29.99,NW,314,0.0,0.0,94,0.00,,FEW250,0.00,VWS V14.01,2013-07-31 07:15:00,
2013-07-31 02:20:00,69.7,67.9,29.99,NW,314,0.0,0.0,94,0.00,,FEW250,0.00,VWS V14.01,2013-07-31 07:20:00,
2013-07-31 02:25:00,69.5,67.7,29.99,North,360,0.0,1.0,94,0.00,,FEW250,0.00,VWS V14.01,2013-07-31 07:25:00,
2013-07-31 02:30:00,69.5,67.7,29.99,NW,318,0.0,2.0,94,0.00,,FEW250,0.00,VWS V14.01,2013-07-31 07:30:00,
2013-07-31 02:35:00,69.5,67.7,30.00,NW,317,0.0,1.0,94,0.00,,FEW250,0.00,VWS V14.01,2013-07-31 07:35:00,
2013-07-31 02:40:00,69.5,67.7,30.00,NNW,336,1.0,3.0,94,0.00,,FEW250,0.00,VWS V14.01,2013-07-31 07:40:00,
2013-07-31 02:45:00,69.5,67.7,30.01,NNW,337,0.0,2.0,94,0.00,,FEW250,0.00,VWS V14.01,2013-07-31 07:45:00,
2013-07-31 02:50:00,69.4,67.6,30.01,NNW,340,0.0,2.0,94,0.00,,FEW250,0.00,VWS V14.01,2013-07-31 07:50:00,
2013-07-31 02:55:00,69.4,67.6,30.01,NW,323,0.0,3.0,94,0.00,,FEW250,0.00,VWS V14.01,2013-07-31 07:55:00,
2013-07-31 03:00:00,69.3,67.5,30.02,NW,323,1.0,2.0,94,0.00,,FEW250,0.00,VWS V14.01,2013-07-31 08:00:00,
2013-07-31 03:05:00,69.3,67.5,30.02,NNW,335,2.0,2.0,94,0.00,,FEW250,0.00,VWS V14.01,2013-07-31 08:05:00,
2013-07-31 03:10:00,69.3,67.5,30.02,NW,316,0.0,2.0,94,0.00,,FEW250,0.00,VWS V14.01,2013-07-31 08:10:00,
2013-07-31 03:15:00,69.3,67.5,30.01,NW,316,1.0,1.0,94,0.00,,FEW250,0.00,VWS V14.01,2013-07-31 08:15:00,
2013-07-31 03:20:00,69.2,67.4,30.01,NW,318,1.0,1.0,94,0.00,,FEW250,0.00,VWS V14.01,2013-07-31 08:20:00,
2013-07-31 03:25:00,69.1,67.3,30.01,NW,317,0.0,0.0,94,0.00,,FEW250,0.00,VWS V14.01,2013-07-31 08:25:00,
2013-07-31 03:30:00,69.0,67.2,30.00,NNW,330,0.0,0.0,94,0.00,,FEW250,0.00,VWS V14.01,2013-07-31 08:30:00,
2013-07-31 03:35:00,68.9,67.1,30.00,NNW,330,0.0,0.0,94,0.00,,SCT250,0.00,VWS V14.01,2013-07-31 08:35:00,
2013-07-31 03:40:00,68.8,67.3,30.00,NNW,330,0.0,0.0,95,0.00,,SCT250,0.00,VWS V14.01,2013-07-31 08:40:00,
2013-07-31 03:45:00,68.8,67.3,30.00,NNW,330,0.0,0.0,95,0.00,,SCT250,0.00,VWS V14.01,2013-07-31 08:45:00,
2013-07-31 03:50:00,68.6,67.1,30.00,NNW,330,0.0,0.0,95,0.00,,SCT250,0.00,VWS V14.01,2013-07-31 08:50:00,
2013-07-31 03:55:00,68.6,67.1,30.00,NNW,330,0.0,0.0,95,0.00,,SCT250,0.00,VWS V14.01,2013-07-31 08:55:00,
2013-07-31 04:00:00,68.5,67.0,30.00,NNW,330,0.0,0.0,95,0.00,,SCT250,0.00,VWS V14.01,2013-07-31 09:00:00,
2013-07-31 04:05:00,68.4,66.9,30.00,NNW,330,0.0,0.0,95,0.00,,SCT250,0.00,VWS V14.01,2013-07-31 09:05:00,
2013-07-31 04:10:00,68.2,66.7,29.99,NNW,330,0.0,0.0,95,0.00,,SCT250,0.00,VWS V14.01,2013-07-31 09:10:00,
2013-07-31 04:15:00,68.0,66.5,29.99,NNW,330,0.0,0.0,95,0.00,,SCT250,0.00,VWS V14.01,2013-07-31 09:15:00,
2013-07-31 04:20:00,67.7,66.2,29.99,NNW,330,0.0,0.0,95,0.00,,SCT250,0.00,VWS V14.01,2013-07-31 09:20:00,
2013-07-31 04:25:00,67.5,66.0,29.99,NNW,330,0.0,0.0,95,0.00,,SCT250,0.00,VWS V14.01,2013-07-31 09:25:00,
2013-07-31 04:30:00,67.4,65.9,29.99,NNW,330,0.0,0.0,95,0.00,,SCT250,0.00,VWS V14.01,2013-07-31 09:30:00,
2013-07-31 04:35:00,67.3,65.8,30.00,NNW,328,0.0,0.0,95,0.00,,SCT250,0.00,VWS V14.01,2013-07-31 09:35:00,
2013-07-31 04:40:00,67.3,65.8,29.99,NNW,329,0.0,0.0,95,0.00,,SCT250,0.00,VWS V14.01,2013-07-31 09:40:00,
2013-07-31 04:45:00,67.3,65.8,30.00,NNW,329,0.0,0.0,95,0.00,,SCT250,0.00,VWS V14.01,2013-07-31 09:45:00,
2013-07-31 04:50:00,67.4,65.9,30.00,NW,319,0.0,0.0,95,0.00,,SCT250,0.00,VWS V14.01,2013-07-31 09:50:00,
2013-07-31 04:55:00,67.3,65.8,30.00,NW,319,0.0,0.0,95,0.00,,SCT250,0.00,VWS V14.01,2013-07-31 09:55:00,
2013-07-31 05:00:00,67.4,65.9,30.00,NW,319,0.0,0.0,95,0.00,,SCT250,0.00,VWS V14.01,2013-07-31 10:00:00,
2013-07-31 05:05:00,67.4,65.9,30.01,NW,319,0.0,0.0,95,0.00,,SCT250,0.00,VWS V14.01,2013-07-31 10:05:00,
2013-07-31 05:10:00,67.2,65.7,30.01,NW,319,0.0,0.0,95,0.00,,SCT250,0.00,VWS V14.01,2013-07-31 10:10:00,
2013-07-31 05:15:00,67.2,65.7,30.01,NW,319,0.0,0.0,95,0.00,,SCT250,0.00,VWS V14.01,2013-07-31 10:15:00,
2013-07-31 05:20:00,67.1,65.6,30.01,NW,319,0.0,0.0,95,0.00,,SCT250,0.00,VWS V14.01,2013-07-31 10:20:00,
2013-07-31 05:25:00,67.2,65.7,30.02,NW,319,0.0,0.0,95,0.00,,SCT250,0.00,VWS V14.01,2013-07-31 10:25:00,
2013-07-31 05:30:00,67.1,65.6,30.02,NW,312,0.0,1.0,95,0.00,,SCT250,0.00,VWS V14.01,2013-07-31 10:30:00,
2013-07-31 05:35:00,67.1,65.6,30.02,NW,312,0.0,0.0,95,0.00,,FEW250,0.00,VWS V14.01,2013-07-31 10:35:00,
2013-07-31 05:40:00,67.0,65.5,30.02,NW,312,0.0,0.0,95,0.00,,FEW250,0.00,VWS V14.01,2013-07-31 10:40:00,
2013-07-31 05:45:00,67.0,65.5,30.02,NW,311,1.0,2.0,95,0.00,,FEW250,0.00,VWS V14.01,2013-07-31 10:45:00,
2013-07-31 05:50:00,67.0,65.5,30.02,WNW,299,1.0,2.0,95,0.00,,FEW250,0.00,VWS V14.01,2013-07-31 10:50:00,
2013-07-31 05:55:00,66.9,65.4,30.02,WNW,299,0.0,1.0,95,0.00,,FEW250,0.00,VWS V14.01,2013-07-31 10:55:00,
2013-07-31 06:00:00,66.9,65.4,30.02,WNW,299,0.0,1.0,95,0.00,,FEW250,0.00,VWS V14.01,2013-07-31 11:00:00,
2013-07-31 06:05:00,66.9,65.7,30.03,WNW,299,0.0,0.0,96,0.00,,FEW250,0.00,VWS V14.01,2013-07-31 11:05:00,
2013-07-31 06:10:00,66.8,65.3,30.03,WNW,300,0.0,0.0,95,0.00,,FEW250,0.00,VWS V14.01,2013-07-31 11:10:00,
2013-07-31 06:15:00,66.7,65.2,30.04,NW,307,2.0,2.0,95,0.00,,FEW250,0.00,VWS V14.01,2013-07-31 11:15:00,
2013-07-31 06:20:00,66.6,65.1,30.04,NW,306,1.0,2.0,95,0.00,,FEW250,0.00,VWS V14.01,2013-07-31 11:20:00,
2013-07-31 06:25:00,66.6,65.4,30.04,NW,307,1.0,1.0,96,0.00,,FEW250,0.00,VWS V14.01,2013-07-31 11:25:00,
2013-07-31 06:30:00,66.5,65.3,30.03,NW,307,1.0,2.0,96,0.00,,FEW250,0.00,VWS V14.01,2013-07-31 11:30:00,
2013-07-31 06:35:00,66.5,65.3,30.04,NW,311,2.0,3.0,96,0.00,,SCT250,0.00,VWS V14.01,2013-07-31 11:35:00,
2013-07-31 06:40:00,66.4,65.2,30.04,NW,304,1.0,3.0,96,0.00,,SCT250,0.00,VWS V14.01,2013-07-31 11:40:00,
2013-07-31 06:45:00,66.5,65.3,30.05,NW,308,2.0,4.0,96,0.00,,SCT250,0.00,VWS V14.01,2013-07-31 11:45:00,
2013-07-31 06:50:00,66.5,65.3,30.05,WNW,299,3.0,5.0,96,0.00,,SCT250,0.00,VWS V14.01,2013-07-31 11:50:00,
2013-07-31 06:55:00,66.5,65.3,30.06,NNE,15,3.0,7.0,96,0.00,,SCT250,0.00,VWS V14.01,2013-07-31 11:55:00,
2013-07-31 07:00:00,66.5,65.3,30.06,WNW,283,4.0,7.0,96,0.00,,SCT250,0.00,VWS V14.01,2013-07-31 12:00:00,
2013-07-31 07:05:00,66.4,65.2,30.06,NW,307,2.0,5.0,96,0.00,,SCT250,0.00,VWS V14.01,2013-07-31 12:05:00,
2013-07-31 07:09:00,66.4,65.2,30.07,WNW,302,4.0,8.0,96,0.00,,SCT250,0.00,VWS V14.01,2013-07-31 12:09:00,
2013-07-31 07:10:00,66.4,65.2,30.07,WNW,290,2.0,8.0,96,0.00,,SCT250,0.00,VWS V14.01,2013-07-31 12:10:00,
2013-07-31 07:14:00,66.4,65.2,30.08,WNW,301,3.0,6.0,96,0.00,,SCT250,0.00,VWS V14.01,2013-07-31 12:14:00,
2013-07-31 07:19:00,66.5,65.3,30.08,WNW,292,5.0,5.0,96,0.00,,SCT250,0.00,VWS V14.01,2013-07-31 12:19:00,
2013-07-31 07:20:00,66.6,65.4,30.07,WNW,288,4.0,5.0,96,0.00,,SCT080,0.00,VWS V14.01,2013-07-31 12:20:00,
2013-07-31 07:24:00,66.7,65.5,30.07,NNW,348,2.0,5.0,96,0.00,,SCT250,0.00,VWS V14.01,2013-07-31 12:24:00,
2013-07-31 07:25:00,66.8,65.6,30.07,NW,324,3.0,5.0,96,0.00,,SCT080,0.00,VWS V14.01,2013-07-31 12:25:00,
2013-07-31 07:29:00,67.0,65.8,30.07,WNW,292,3.0,5.0,96,0.00,,SCT250,0.00,VWS V14.01,2013-07-31 12:29:00,
2013-07-31 07:30:00,67.0,65.8,30.07,NNW,329,0.0,5.0,96,0.00,,SCT080,0.00,VWS V14.01,2013-07-31 12:30:00,
2013-07-31 07:34:00,67.2,66.0,30.07,WNW,290,1.0,4.0,96,0.00,,,0.00,VWS V14.01,2013-07-31 12:34:00,
2013-07-31 07:39:00,67.4,66.2,30.07,WNW,290,2.0,2.0,96,0.00,,,0.00,VWS V14.01,2013-07-31 12:39:00,
2013-07-31 07:40:00,67.5,66.3,30.07,WNW,290,2.0,2.0,96,0.00,,SCT080,0.00,VWS V14.01,2013-07-31 12:40:00,
2013-07-31 07:44:00,67.6,66.4,30.07,NW,308,2.0,3.0,96,0.00,,,0.00,VWS V14.01,2013-07-31 12:44:00,
2013-07-31 07:45:00,67.6,66.4,30.06,NW,308,1.0,3.0,96,0.00,,SCT080,0.00,VWS V14.01,2013-07-31 12:45:00,
2013-07-31 07:49:00,67.7,66.5,30.06,WNW,303,1.0,2.0,96,0.00,,,0.00,VWS V14.01,2013-07-31 12:49:00,
2013-07-31 07:50:00,67.7,66.5,30.06,NW,304,0.0,2.0,96,0.00,,SCT080,0.00,VWS V14.01,2013-07-31 12:50:00,
2013-07-31 07:54:00,67.9,66.7,30.06,NW,304,0.0,0.0,96,0.00,,,0.00,VWS V14.01,2013-07-31 12:54:00,
2013-07-31 07:55:00,67.9,66.7,30.06,WNW,303,0.0,1.0,96,0.00,,SCT080,0.00,VWS V14.01,2013-07-31 12:55:00,
2013-07-31 07:59:00,68.1,66.9,30.05,WNW,303,0.0,1.0,96,0.00,,,0.00,VWS V14.01,2013-07-31 12:59:00,
2013-07-31 08:00:00,68.2,67.0,30.05,NW,304,0.0,1.0,96,0.00,,SCT080,0.00,VWS V14.01,2013-07-31 13:00:00,
2013-07-31 08:04:00,68.4,67.2,30.05,NW,304,0.0,1.0,96,0.00,,,0.00,VWS V14.01,2013-07-31 13:04:00,
2013-07-31 08:05:00,68.4,67.2,30.05,WNW,303,0.0,1.0,96,0.00,,SCT080,0.00,VWS V14.01,2013-07-31 13:05:00,
2013-07-31 08:09:00,68.7,67.5,30.05,NW,304,0.0,0.0,96,0.00,,,0.00,VWS V14.01,2013-07-31 13:09:00,
2013-07-31 08:10:00,68.7,67.5,30.05,NW,304,0.0,0.0,96,0.00,,SCT080,0.00,VWS V14.01,2013-07-31 13:10:00,
2013-07-31 08:14:00,68.7,67.5,30.05,WNW,303,0.0,0.0,96,0.00,,,0.00,VWS V14.01,2013-07-31 13:14:00,
2013-07-31 08:15:00,68.7,67.5,30.05,NW,304,0.0,0.0,96,0.00,,SCT080,0.00,VWS V14.01,2013-07-31 13:15:00,
2013-07-31 08:19:00,68.8,67.6,30.05,NW,304,0.0,0.0,96,0.00,,,0.00,VWS V14.01,2013-07-31 13:19:00,
2013-07-31 08:20:00,68.7,67.5,30.05,NW,304,0.0,0.0,96,0.00,,SCT080,0.00,VWS V14.01,2013-07-31 13:20:00,
2013-07-31 08:24:00,68.7,67.5,30.05,NW,304,0.0,0.0,96,0.00,,,0.00,VWS V14.01,2013-07-31 13:24:00,
2013-07-31 08:25:00,68.8,67.6,30.05,NW,304,0.0,0.0,96,0.00,,SCT080,0.00,VWS V14.01,2013-07-31 13:25:00,
2013-07-31 08:29:00,69.2,68.0,30.05,NW,304,0.0,0.0,96,0.00,,,0.00,VWS V14.01,2013-07-31 13:29:00,
2013-07-31 08:30:00,69.3,68.1,30.04,WNW,303,0.0,0.0,96,0.00,,SCT080,0.00,VWS V14.01,2013-07-31 13:30:00,
2013-07-31 08:34:00,69.4,68.2,30.04,NNW,328,0.0,0.0,96,0.00,,,0.00,VWS V14.01,2013-07-31 13:34:00,
2013-07-31 08:35:00,69.6,68.4,30.04,NNW,328,0.0,0.0,96,0.00,,SCT080,0.00,VWS V14.01,2013-07-31 13:35:00,
2013-07-31 08:39:00,69.6,68.4,30.04,NNW,328,0.0,0.0,96,0.00,,,0.00,VWS V14.01,2013-07-31 13:39:00,
2013-07-31 08:40:00,69.7,68.5,30.04,NNW,327,0.0,0.0,96,0.00,,SCT080,0.00,VWS V14.01,2013-07-31 13:40:00,
2013-07-31 08:44:00,69.8,68.6,30.05,NNW,327,0.0,0.0,96,0.00,,,0.00,VWS V14.01,2013-07-31 13:44:00,
2013-07-31 08:45:00,69.8,68.6,30.05,NNW,328,0.0,0.0,96,0.00,,SCT080,0.00,VWS V14.01,2013-07-31 13:45:00,
2013-07-31 08:49:00,70.0,68.8,30.05,South,186,0.0,0.0,96,0.00,,,0.00,VWS V14.01,2013-07-31 13:49:00,
2013-07-31 08:50:00,70.0,68.8,30.05,South,186,0.0,0.0,96,0.00,,SCT080,0.00,VWS V14.01,2013-07-31 13:50:00,
2013-07-31 08:54:00,70.1,68.9,30.05,ESE,113,2.0,3.0,96,0.00,,,0.00,VWS V14.01,2013-07-31 13:54:00,
2013-07-31 08:55:00,70.0,68.8,30.05,ESE,113,1.0,3.0,96,0.00,,SCT080,0.00,VWS V14.01,2013-07-31 13:55:00,
2013-07-31 08:59:00,70.2,69.0,30.04,ESE,113,0.0,1.0,96,0.00,,,0.00,VWS V14.01,2013-07-31 13:59:00,
2013-07-31 09:00:00,70.4,69.2,30.05,ESE,113,0.0,1.0,96,0.00,,SCT080,0.00,VWS V14.01,2013-07-31 14:00:00,
2013-07-31 09:04:00,71.0,69.8,30.05,ESE,113,0.0,0.0,96,0.00,,,0.00,VWS V14.01,2013-07-31 14:04:00,
2013-07-31 09:05:00,71.1,69.9,30.05,ESE,113,1.0,1.0,96,0.00,,SCT080,0.00,VWS V14.01,2013-07-31 14:05:00,
2013-07-31 09:09:00,71.1,69.9,30.05,ESE,113,0.0,1.0,96,0.00,,,0.00,VWS V14.01,2013-07-31 14:09:00,
2013-07-31 09:10:00,71.2,70.0,30.05,ESE,113,1.0,1.0,96,0.00,,SCT080,0.00,VWS V14.01,2013-07-31 14:10:00,
2013-07-31 09:14:00,71.7,70.5,30.05,SSW,210,2.0,2.0,96,0.00,,,0.00,VWS V14.01,2013-07-31 14:14:00,
2013-07-31 09:15:00,71.9,70.7,30.05,South,173,2.0,4.0,96,0.00,,SCT080,0.00,VWS V14.01,2013-07-31 14:15:00,
2013-07-31 09:19:00,72.1,70.6,30.05,ESE,120,2.0,2.0,95,0.00,,,0.00,VWS V14.01,2013-07-31 14:19:00,
2013-07-31 09:20:00,72.2,70.7,30.05,ESE,120,0.0,2.0,95,0.00,,SCT080,0.00,VWS V14.01,2013-07-31 14:20:00,
2013-07-31 09:24:00,72.5,70.7,30.05,SE,132,0.0,2.0,94,0.00,,,0.00,VWS V14.01,2013-07-31 14:24:00,
2013-07-31 09:25:00,72.7,70.9,30.04,SSW,204,1.0,2.0,94,0.00,,SCT080,0.00,VWS V14.01,2013-07-31 14:25:00,
2013-07-31 09:29:00,73.5,71.4,30.04,SSE,159,1.0,4.0,93,0.00,,,0.00,VWS V14.01,2013-07-31 14:29:00,
2013-07-31 09:30:00,73.8,71.7,30.04,SSW,205,1.0,4.0,93,0.00,,SCT080,0.00,VWS V14.01,2013-07-31 14:30:00,
2013-07-31 09:34:00,74.6,71.8,30.04,ESE,120,0.0,2.0,91,0.00,,BKN150,0.00,VWS V14.01,2013-07-31 14:34:00,
2013-07-31 09:35:00,74.9,71.8,30.05,East,80,2.0,2.0,90,0.00,,SCT080,0.00,VWS V14.01,2013-07-31 14:35:00,
2013-07-31 09:39:00,75.3,71.8,30.05,ENE,58,1.0,2.0,89,0.00,,BKN150,0.00,VWS V14.01,2013-07-31 14:39:00,
2013-07-31 09:40:00,75.4,71.9,30.05,SSE,158,1.0,2.0,89,0.00,,SCT080,0.00,VWS V14.01,2013-07-31 14:40:00,
2013-07-31 09:44:00,75.3,71.2,30.04,NNE,25,2.0,3.0,87,0.00,,BKN150,0.00,VWS V14.01,2013-07-31 14:44:00,
2013-07-31 09:45:00,75.1,71.0,30.04,NNE,15,1.0,3.0,87,0.00,,SCT080,0.00,VWS V14.01,2013-07-31 14:45:00,
2013-07-31 09:49:00,75.3,71.8,30.04,SW,224,0.0,2.0,89,0.00,,BKN150,0.00,VWS V14.01,2013-07-31 14:49:00,
2013-07-31 09:50:00,75.8,72.0,30.04,SE,138,0.0,2.0,88,0.00,,SCT080,0.00,VWS V14.01,2013-07-31 14:50:00,
2013-07-31 09:54:00,76.3,71.1,30.04,NNE,25,1.0,3.0,84,0.00,,BKN150,0.00,VWS V14.01,2013-07-31 14:54:00,
2013-07-31 09:55:00,76.2,71.0,30.04,NNE,27,1.0,3.0,84,0.00,,SCT080,0.00,VWS V14.01,2013-07-31 14:55:00,
2013-07-31 09:59:00,76.0,70.8,30.04,North,4,3.0,3.0,84,0.00,,BKN150,0.00,VWS V14.01,2013-07-31 14:59:00,
2013-07-31 10:00:00,76.1,71.3,30.04,North,1,2.0,3.0,85,0.00,,SCT080,0.00,VWS V14.01,2013-07-31 15:00:00,
2013-07-31 10:04:00,76.4,70.9,30.04,WNW,295,0.0,2.0,83,0.00,,BKN150,0.00,VWS V14.01,2013-07-31 15:04:00,
2013-07-31 10:05:00,76.7,71.9,30.04,NE,51,0.0,2.0,85,0.00,,SCT080,0.00,VWS V14.01,2013-07-31 15:05:00,
2013-07-31 10:09:00,77.4,71.1,30.05,East,89,0.0,4.0,81,0.00,,BKN150,0.00,VWS V14.01,2013-07-31 15:09:00,
2013-07-31 10:10:00,77.3,71.0,30.05,ENE,72,0.0,4.0,81,0.00,,SCT080,0.00,VWS V14.01,2013-07-31 15:10:00,
2013-07-31 10:14:00,77.4,71.5,30.05,NNE,17,2.0,5.0,82,0.00,,BKN150,0.00,VWS V14.01,2013-07-31 15:14:00,
2013-07-31 10:15:00,77.5,71.2,30.05,NNE,32,1.0,5.0,81,0.00,,SCT080,0.00,VWS V14.01,2013-07-31 15:15:00,
2013-07-31 10:19:00,78.0,71.7,30.05,ENE,68,0.0,2.0,81,0.00,,BKN150,0.00,VWS V14.01,2013-07-31 15:19:00,
2013-07-31 10:20:00,78.4,72.1,30.05,North,11,1.0,4.0,81,0.00,,SCT080,0.00,VWS V14.01,2013-07-31 15:20:00,
2013-07-31 10:24:00,78.6,71.9,30.05,North,350,4.0,5.0,80,0.00,,BKN150,0.00,VWS V14.01,2013-07-31 15:24:00,
2013-07-31 10:25:00,78.5,71.1,30.05,NW,316,4.0,6.0,78,0.00,,SCT080,0.00,VWS V14.01,2013-07-31 15:25:00,
2013-07-31 10:29:00,78.7,72.0,30.05,ENE,75,4.0,5.0,80,0.00,,BKN150,0.00,VWS V14.01,2013-07-31 15:29:00,
2013-07-31 10:30:00,78.7,71.6,30.05,NNE,25,4.0,5.0,79,0.00,,SCT080,0.00,VWS V14.01,2013-07-31 15:30:00,
2013-07-31 10:34:00,78.4,71.0,30.05,NE,39,2.0,7.0,78,0.00,,BKN014,0.00,VWS V14.01,2013-07-31 15:34:00,
2013-07-31 10:35:00,78.2,71.2,30.05,North,356,1.0,7.0,79,0.00,,SCT080,0.00,VWS V14.01,2013-07-31 15:35:00,
2013-07-31 10:39:00,78.3,71.3,30.05,North,9,2.0,4.0,79,0.00,,BKN014,0.00,VWS V14.01,2013-07-31 15:39:00,
2013-07-31 10:40:00,78.3,71.3,30.05,NNE,32,1.0,4.0,79,0.00,,SCT080,0.00,VWS V14.01,2013-07-31 15:40:00,
2013-07-31 10:44:00,78.0,71.3,30.05,ENE,57,3.0,8.0,80,0.00,,BKN014,0.00,VWS V14.01,2013-07-31 15:44:00,
2013-07-31 10:45:00,77.8,71.1,30.05,East,97,2.0,8.0,80,0.00,,SCT080,0.00,VWS V14.01,2013-07-31 15:45:00,
2013-07-31 10:49:00,77.7,71.4,30.05,NNE,25,4.0,4.0,81,0.00,,BKN023,0.00,VWS V14.01,2013-07-31 15:49:00,
2013-07-31 10:50:00,78.0,71.7,30.05,North,8,2.0,4.0,81,0.00,,SCT080,0.00,VWS V14.01,2013-07-31 15:50:00,
2013-07-31 10:54:00,78.7,72.4,30.05,NE,41,2.0,4.0,81,0.00,,BKN023,0.00,VWS V14.01,2013-07-31 15:54:00,
2013-07-31 10:55:00,78.8,71.4,30.05,NNW,338,1.0,4.0,78,0.00,,SCT080,0.00,VWS V14.01,2013-07-31 15:55:00,
2013-07-31 10:59:00,79.4,71.9,30.05,NNW,335,1.0,3.0,78,0.00,,BKN023,0.00,VWS V14.01,2013-07-31 15:59:00,
2013-07-31 11:00:00,79.6,71.8,30.05,NE,42,2.0,5.0,77,0.00,,SCT080,0.00,VWS V14.01,2013-07-31 16:00:00,
2013-07-31 11:04:00,79.7,71.5,30.05,NE,49,8.0,8.0,76,0.00,,BKN023,0.00,VWS V14.01,2013-07-31 16:04:00,
2013-07-31 11:05:00,79.7,71.1,30.05,NNE,19,3.0,8.0,75,0.00,,SCT080,0.00,VWS V14.01,2013-07-31 16:05:00,
2013-07-31 11:09:00,79.5,71.3,30.06,NE,53,2.0,4.0,76,0.00,,BKN023,0.00,VWS V14.01,2013-07-31 16:09:00,
2013-07-31 11:10:00,79.6,71.0,30.05,NNW,337,1.0,6.0,75,0.00,,SCT080,0.00,VWS V14.01,2013-07-31 16:10:00,
2013-07-31 11:14:00,80.0,71.8,30.05,East,79,3.0,5.0,76,0.00,,BKN023,0.00,VWS V14.01,2013-07-31 16:14:00,
2013-07-31 11:15:00,80.1,71.5,30.06,NE,51,3.0,5.0,75,0.00,,SCT080,0.00,VWS V14.01,2013-07-31 16:15:00,
2013-07-31 11:19:00,80.2,70.8,30.05,NW,321,0.0,5.0,73,0.00,,BKN023,0.00,VWS V14.01,2013-07-31 16:19:00,
2013-07-31 11:20:00,80.6,72.3,30.05,SE,145,1.0,5.0,76,0.00,,SCT080,0.00,VWS V14.01,2013-07-31 16:20:00,
2013-07-31 11:24:00,81.4,71.9,30.05,NNW,343,3.0,4.0,73,0.00,,BKN023,0.00,VWS V14.01,2013-07-31 16:24:00,
2013-07-31 11:25:00,81.6,71.3,30.05,NE,44,4.0,7.0,71,0.00,,SCT080,0.00,VWS V14.01,2013-07-31 16:25:00,
2013-07-31 11:29:00,81.1,71.2,30.05,NNW,335,1.0,4.0,72,0.00,,BKN023,0.00,VWS V14.01,2013-07-31 16:29:00,
2013-07-31 11:30:00,81.0,71.1,30.05,East,98,1.0,4.0,72,0.00,,SCT080,0.00,VWS V14.01,2013-07-31 16:30:00,
2013-07-31 11:34:00,81.2,71.3,30.05,NW,307,6.0,6.0,72,0.00,,SCT028,0.00,VWS V14.01,2013-07-31 16:34:00,
2013-07-31 11:35:00,81.0,71.1,30.05,NE,37,1.0,6.0,72,0.00,,SCT080,0.00,VWS V14.01,2013-07-31 16:35:00,
2013-07-31 11:39:00,81.2,71.7,30.06,SSW,201,1.0,3.0,73,0.00,,SCT028,0.00,VWS V14.01,2013-07-31 16:39:00,
2013-07-31 11:40:00,81.3,71.4,30.05,East,94,0.0,3.0,72,0.00,,SCT080,0.00,VWS V14.01,2013-07-31 16:40:00,
2013-07-31 11:44:00,81.8,72.3,30.05,NW,321,1.0,4.0,73,0.00,,SCT028,0.00,VWS V14.01,2013-07-31 16:44:00,
2013-07-31 11:45:00,82.0,71.3,30.05,NW,309,2.0,4.0,70,0.00,,SCT080,0.00,VWS V14.01,2013-07-31 16:45:00,
2013-07-31 11:49:00,82.2,71.4,30.05,NNE,30,5.0,5.0,70,0.00,,SCT028,0.00,VWS V14.01,2013-07-31 16:49:00,
2013-07-31 11:50:00,82.2,70.6,30.06,North,9,3.0,6.0,68,0.00,,SCT080,0.00,VWS V14.01,2013-07-31 16:50:00,
2013-07-31 11:54:00,82.0,70.4,30.05,NW,316,2.0,4.0,68,0.00,,SCT028,0.00,VWS V14.01,2013-07-31 16:54:00,
2013-07-31 11:55:00,81.9,71.2,30.05,NNE,21,2.0,4.0,70,0.00,,SCT080,0.00,VWS V14.01,2013-07-31 16:55:00,
2013-07-31 11:59:00,82.1,70.9,30.05,North,354,2.0,3.0,69,0.00,,SCT028,0.00,VWS V14.01,2013-07-31 16:59:00,
2013-07-31 12:00:00,82.1,70.5,30.05,NNW,329,1.0,3.0,68,0.00,,SCT080,0.00,VWS V14.01,2013-07-31 17:00:00,
2013-07-31 12:04:00,82.4,70.8,30.05,WNW,300,1.0,5.0,68,0.00,,SCT028,0.00,VWS V14.01,2013-07-31 17:04:00,
2013-07-31 12:05:00,82.4,70.3,30.05,West,275,2.0,6.0,67,0.00,,SCT080,0.00,VWS V14.01,2013-07-31 17:05:00,
2013-07-31 12:09:00,82.3,70.3,30.05,NW,321,3.0,5.0,67,0.00,,SCT028,0.00,VWS V14.01,2013-07-31 17:09:00,
2013-07-31 12:10:00,82.1,70.9,30.05,NNW,345,3.0,5.0,69,0.00,,SCT080,0.00,VWS V14.01,2013-07-31 17:10:00,
2013-07-31 12:14:00,81.9,70.7,30.05,ENE,59,1.0,4.0,69,0.00,,SCT028,0.00,VWS V14.01,2013-07-31 17:14:00,
2013-07-31 12:15:00,82.0,71.3,30.06,NE,40,1.0,4.0,70,0.00,,SCT080,0.00,VWS V14.01,2013-07-31 17:15:00,
2013-07-31 12:19:00,82.1,70.1,30.06,NNE,30,2.0,7.0,67,0.00,,SCT028,0.00,VWS V14.01,2013-07-31 17:19:00,
2013-07-31 12:20:00,82.0,70.8,30.06,NE,49,1.0,7.0,69,0.00,,SCT080,0.00,VWS V14.01,2013-07-31 17:20:00,
2013-07-31 12:24:00,81.8,70.2,30.05,NE,36,1.0,4.0,68,0.00,,SCT028,0.00,VWS V14.01,2013-07-31 17:24:00,
2013-07-31 12:25:00,81.7,70.6,30.05,NNW,345,1.0,4.0,69,0.00,,SCT080,0.00,VWS V14.01,2013-07-31 17:25:00,
2013-07-31 12:29:00,81.9,70.3,30.05,NNW,340,2.0,5.0,68,0.00,,SCT028,0.00,VWS V14.01,2013-07-31 17:29:00,
2013-07-31 12:30:00,81.8,70.6,30.06,NW,305,3.0,5.0,69,0.00,,SCT080,0.00,VWS V14.01,2013-07-31 17:30:00,
2013-07-31 12:34:00,81.5,70.8,30.06,NNE,16,2.0,7.0,70,0.00,,SCT024,0.00,VWS V14.01,2013-07-31 17:34:00,
2013-07-31 12:35:00,81.6,70.4,30.05,NNE,30,2.0,7.0,69,0.00,,SCT080,0.00,VWS V14.01,2013-07-31 17:35:00,
2013-07-31 12:39:00,81.8,71.1,30.05,ENE,67,2.0,3.0,70,0.00,,SCT024,0.00,VWS V14.01,2013-07-31 17:39:00,
2013-07-31 12:40:00,82.2,71.4,30.05,NNE,30,2.0,4.0,70,0.00,,SCT080,0.00,VWS V14.01,2013-07-31 17:40:00,
2013-07-31 12:44:00,82.4,69.9,30.05,ENE,68,3.0,7.0,66,0.00,,SCT024,0.00,VWS V14.01,2013-07-31 17:44:00,
2013-07-31 12:45:00,82.3,70.2,30.05,WNW,299,3.0,7.0,67,0.00,,SCT080,0.00,VWS V14.01,2013-07-31 17:45:00,
2013-07-31 12:49:00,83.0,70.9,30.05,North,4,1.0,4.0,67,0.00,,SCT024,0.00,VWS V14.01,2013-07-31 17:49:00,
2013-07-31 12:50:00,83.5,70.5,30.05,East,93,4.0,6.0,65,0.00,,SCT080,0.00,VWS V14.01,2013-07-31 17:50:00,
2013-07-31 12:54:00,83.3,69.9,30.05,NNW,347,5.0,9.0,64,0.00,,SCT024,0.00,VWS V14.01,2013-07-31 17:54:00,
2013-07-31 12:55:00,83.2,70.7,30.05,NNE,25,2.0,9.0,66,0.00,,SCT080,0.00,VWS V14.01,2013-07-31 17:55:00,
2013-07-31 12:59:00,83.6,70.6,30.05,NW,311,1.0,5.0,65,0.00,,SCT024,0.00,VWS V14.01,2013-07-31 17:59:00,
2013-07-31 13:00:00,83.7,70.7,30.04,North,9,2.0,5.0,65,0.00,,SCT080,0.00,VWS V14.01,2013-07-31 18:00:00,
2013-07-31 13:04:00,83.8,69.9,30.05,North,6,4.0,8.0,63,0.00,,SCT024,0.00,VWS V14.01,2013-07-31 18:04:00,
2013-07-31 13:05:00,83.5,70.1,30.05,NNE,32,1.0,8.0,64,0.00,,SCT080,0.00,VWS V14.01,2013-07-31 18:05:00,
2013-07-31 13:09:00,83.5,70.9,30.04,NE,49,6.0,6.0,66,0.00,,SCT024,0.00,VWS V14.01,2013-07-31 18:09:00,
2013-07-31 13:10:00,83.7,70.2,30.04,NNE,33,5.0,6.0,64,0.00,,SCT080,0.00,VWS V14.01,2013-07-31 18:10:00,
2013-07-31 13:14:00,84.0,70.5,30.04,NNE,15,2.0,5.0,64,0.00,,SCT024,0.00,VWS V14.01,2013-07-31 18:14:00,
2013-07-31 13:15:00,84.1,70.2,30.04,NW,309,1.0,5.0,63,0.00,,SCT080,0.00,VWS V14.01,2013-07-31 18:15:00,
2013-07-31 13:19:00,83.9,70.4,30.04,NNW,340,2.0,4.0,64,0.00,,SCT024,0.00,VWS V14.01,2013-07-31 18:19:00,
2013-07-31 13:20:00,83.9,70.0,30.04,NE,37,2.0,6.0,63,0.00,,SCT080,0.00,VWS V14.01,2013-07-31 18:20:00,
2013-07-31 13:24:00,83.9,70.0,30.04,NW,305,1.0,5.0,63,0.00,,SCT024,0.00,VWS V14.01,2013-07-31 18:24:00,
2013-07-31 13:25:00,84.2,70.2,30.04,NNW,335,2.0,5.0,63,0.00,,SCT080,0.00,VWS V14.01,2013-07-31 18:25:00,
2013-07-31 13:29:00,84.3,70.3,30.04,NW,314,2.0,5.0,63,0.00,,SCT024,0.00,VWS V14.01,2013-07-31 18:29:00,
2013-07-31 13:30:00,84.3,69.4,30.04,West,276,3.0,6.0,61,0.00,,SCT080,0.00,VWS V14.01,2013-07-31 18:30:00,
2013-07-31 13:34:00,84.1,69.7,30.04,NNW,340,1.0,4.0,62,0.00,,BKN034,0.00,VWS V14.01,2013-07-31 18:34:00,
2013-07-31 13:35:00,84.0,69.6,30.04,North,360,2.0,4.0,62,0.00,,SCT080,0.00,VWS V14.01,2013-07-31 18:35:00,
2013-07-31 13:39:00,83.6,69.7,30.04,East,101,2.0,6.0,63,0.00,,BKN034,0.00,VWS V14.01,2013-07-31 18:39:00,
2013-07-31 13:40:00,83.7,68.8,30.04,ENE,68,5.0,6.0,61,0.00,,SCT080,0.00,VWS V14.01,2013-07-31 18:40:00,
2013-07-31 13:44:00,83.7,69.8,30.04,East,81,3.0,9.0,63,0.00,,BKN034,0.00,VWS V14.01,2013-07-31 18:44:00,
2013-07-31 13:45:00,83.7,69.8,30.04,East,83,2.0,9.0,63,0.00,,SCT080,0.00,VWS V14.01,2013-07-31 18:45:00,
2013-07-31 13:49:00,83.9,70.0,30.03,NNW,330,0.0,4.0,63,0.00,,BKN034,0.00,VWS V14.01,2013-07-31 18:49:00,
2013-07-31 13:50:00,84.3,70.3,30.03,NW,308,3.0,4.0,63,0.00,,SCT080,0.00,VWS V14.01,2013-07-31 18:50:00,
2013-07-31 13:54:00,84.8,70.8,30.03,NE,51,2.0,3.0,63,0.00,,BKN034,0.00,VWS V14.01,2013-07-31 18:54:00,
2013-07-31 13:55:00,85.0,70.5,30.03,NW,319,3.0,3.0,62,0.00,,SCT080,0.00,VWS V14.01,2013-07-31 18:55:00,
2013-07-31 13:59:00,85.1,70.2,30.03,North,352,3.0,4.0,61,0.00,,BKN034,0.00,VWS V14.01,2013-07-31 18:59:00,
2013-07-31 14:00:00,84.9,70.4,30.03,North,349,1.0,4.0,62,0.00,,SCT080,0.00,VWS V14.01,2013-07-31 19:00:00,
2013-07-31 14:04:00,85.2,70.2,30.03,NE,54,2.0,4.0,61,0.00,,BKN034,0.00,VWS V14.01,2013-07-31 19:04:00,
2013-07-31 14:05:00,85.3,70.8,30.03,NNW,329,4.0,4.0,62,0.00,,SCT080,0.00,VWS V14.01,2013-07-31 19:05:00,
2013-07-31 14:08:00,85.2,70.7,30.03,SE,143,2.0,4.0,62,0.00,,BKN034,0.00,VWS V14.01,2013-07-31 19:08:00,
2013-07-31 14:10:00,85.3,69.4,30.03,South,190,1.0,4.0,59,0.00,,SCT080,0.00,VWS V14.01,2013-07-31 19:10:00,
2013-07-31 14:13:00,85.6,70.1,30.02,NE,46,2.0,3.0,60,0.00,,BKN034,0.00,VWS V14.01,2013-07-31 19:13:00,
2013-07-31 14:15:00,85.7,70.7,30.03,NE,46,4.0,6.0,61,0.00,,SCT080,0.00,VWS V14.01,2013-07-31 19:15:00,
2013-07-31 14:18:00,85.1,69.2,30.03,NE,34,2.0,6.0,59,0.00,,BKN034,0.00,VWS V14.01,2013-07-31 19:18:00,
2013-07-31 14:20:00,84.9,70.0,30.03,ESE,107,0.0,6.0,61,0.00,,SCT080,0.00,VWS V14.01,2013-07-31 19:20:00,
2013-07-31 14:23:00,85.3,69.8,30.02,NNW,328,3.0,3.0,60,0.00,,BKN034,0.00,VWS V14.01,2013-07-31 19:23:00,
2013-07-31 14:25:00,85.5,70.0,30.02,West,271,4.0,6.0,60,0.00,,SCT080,0.00,VWS V14.01,2013-07-31 19:25:00,
2013-07-31 14:28:00,85.5,70.0,30.03,NNE,32,6.0,6.0,60,0.00,,BKN034,0.00,VWS V14.01,2013-07-31 19:28:00,
2013-07-31 14:30:00,85.1,69.7,30.03,NE,34,3.0,6.0,60,0.00,,SCT080,0.00,VWS V14.01,2013-07-31 19:30:00,
2013-07-31 14:33:00,85.0,71.0,30.02,SE,146,0.0,3.0,63,0.00,,SCT034,0.00,VWS V14.01,2013-07-31 19:33:00,
2013-07-31 14:35:00,85.5,70.5,30.03,NNE,30,2.0,7.0,61,0.00,,SCT080,0.00,VWS V14.01,2013-07-31 19:35:00,
2013-07-31 14:38:00,85.5,70.5,30.03,ENE,64,2.0,8.0,61,0.00,,SCT034,0.00,VWS V14.01,2013-07-31 19:38:00,
2013-07-31 14:40:00,85.8,70.3,30.03,West,275,3.0,8.0,60,0.00,,SCT080,0.00,VWS V14.01,2013-07-31 19:40:00,
2013-07-31 14:43:00,85.8,69.8,30.03,NW,321,2.0,5.0,59,0.00,,SCT034,0.00,VWS V14.01,2013-07-31 19:43:00,
2013-07-31 14:45:00,85.9,70.4,30.03,NNE,20,3.0,5.0,60,0.00,,SCT080,0.00,VWS V14.01,2013-07-31 19:45:00,
2013-07-31 14:48:00,86.2,71.2,30.02,NNE,30,4.0,6.0,61,0.00,,SCT034,0.00,VWS V14.01,2013-07-31 19:48:00,
2013-07-31 14:50:00,86.2,69.7,30.02,NNE,17,1.0,6.0,58,0.00,,SCT080,0.00,VWS V14.01,2013-07-31 19:50:00,
2013-07-31 14:54:00,86.2,69.7,30.02,NE,35,3.0,4.0,58,0.00,,SCT034,0.00,VWS V14.01,2013-07-31 19:54:00,
2013-07-31 14:55:00,86.4,70.4,30.02,NNW,346,3.0,4.0,59,0.00,,SCT080,0.00,VWS V14.01,2013-07-31 19:55:00,
2013-07-31 14:59:00,86.3,69.8,30.02,NNW,329,1.0,7.0,58,0.00,,SCT034,0.00,VWS V14.01,2013-07-31 19:59:00,
2013-07-31 15:00:00,86.6,69.6,30.02,NNE,27,1.0,7.0,57,0.00,,SCT080,0.00,VWS V14.01,2013-07-31 20:00:00,
2013-07-31 15:04:00,86.7,69.1,30.02,WSW,240,1.0,2.0,56,0.00,,SCT034,0.00,VWS V14.01,2013-07-31 20:04:00,
2013-07-31 15:05:00,87.1,70.5,30.02,ESE,116,1.0,2.0,58,0.00,,SCT080,0.00,VWS V14.01,2013-07-31 20:05:00,
2013-07-31 15:08:00,87.0,69.9,30.01,ENE,68,3.0,5.0,57,0.00,,SCT034,0.00,VWS V14.01,2013-07-31 20:08:00,
2013-07-31 15:10:00,86.5,71.0,30.01,SE,125,1.0,5.0,60,0.00,,SCT080,0.00,VWS V14.01,2013-07-31 20:10:00,
2013-07-31 15:13:00,86.6,70.1,30.01,ENE,65,1.0,4.0,58,0.00,,SCT034,0.00,VWS V14.01,2013-07-31 20:13:00,
2013-07-31 15:15:00,86.6,70.6,30.01,NE,49,1.0,4.0,59,0.00,,SCT080,0.00,VWS V14.01,2013-07-31 20:15:00,
2013-07-31 15:18:00,86.5,69.5,30.01,NNE,27,2.0,3.0,57,0.00,,SCT034,0.00,VWS V14.01,2013-07-31 20:18:00,
2013-07-31 15:20:00,86.6,70.1,30.01,NE,54,2.0,3.0,58,0.00,,SCT080,0.00,VWS V14.01,2013-07-31 20:20:00,
2013-07-31 15:23:00,86.7,69.7,30.01,ESE,123,1.0,3.0,57,0.00,,SCT034,0.00,VWS V14.01,2013-07-31 20:23:00,
2013-07-31 15:25:00,86.7,69.1,30.01,ENE,68,6.0,9.0,56,0.00,,SCT080,0.00,VWS V14.01,2013-07-31 20:25:00,
2013-07-31 15:28:00,86.4,69.9,30.01,NNW,345,4.0,9.0,58,0.00,,SCT034,0.00,VWS V14.01,2013-07-31 20:28:00,
2013-07-31 15:30:00,86.4,68.9,30.00,NNE,14,4.0,9.0,56,0.00,,SCT080,0.00,VWS V14.01,2013-07-31 20:30:00,
2013-07-31 15:33:00,86.2,70.2,30.00,ENE,61,3.0,7.0,59,0.00,,SCT080,0.00,VWS V14.01,2013-07-31 20:33:00,
2013-07-31 15:35:00,86.1,69.1,30.00,NW,326,3.0,8.0,57,0.00,,SCT080,0.00,VWS V14.01,2013-07-31 20:35:00,
2013-07-31 15:38:00,85.9,69.4,30.00,NE,48,3.0,5.0,58,0.00,,SCT080,0.00,VWS V14.01,2013-07-31 20:38:00,
2013-07-31 15:40:00,86.2,71.2,30.00,ENE,75,4.0,7.0,61,0.00,,SCT080,0.00,VWS V14.01,2013-07-31 20:40:00,
2013-07-31 15:43:00,86.3,69.8,30.00,NNE,23,4.0,6.0,58,0.00,,SCT080,0.00,VWS V14.01,2013-07-31 20:43:00,
2013-07-31 15:45:00,86.4,69.4,30.00,NE,56,2.0,6.0,57,0.00,,SCT080,0.00,VWS V14.01,2013-07-31 20:45:00,
2013-07-31 15:48:00,86.3,69.8,30.00,ENE,75,1.0,3.0,58,0.00,,SCT080,0.00,VWS V14.01,2013-07-31 20:48:00,
2013-07-31 15:50:00,86.3,70.3,30.00,East,101,2.0,5.0,59,0.00,,SCT080,0.00,VWS V14.01,2013-07-31 20:50:00,
2013-07-31 15:53:00,86.1,69.6,30.00,ENE,70,3.0,8.0,58,0.00,,SCT080,0.00,VWS V14.01,2013-07-31 20:53:00,
2013-07-31 15:55:00,86.0,70.0,30.00,NNE,32,5.0,8.0,59,0.00,,SCT080,0.00,VWS V14.01,2013-07-31 20:55:00,
2013-07-31 15:58:00,85.9,69.9,29.99,South,184,1.0,5.0,59,0.00,,SCT080,0.00,VWS V14.01,2013-07-31 20:58:00,
2013-07-31 16:00:00,86.2,71.2,29.99,ESE,114,2.0,5.0,61,0.00,,SCT080,0.00,VWS V14.01,2013-07-31 21:00:00,
2013-07-31 16:03:00,86.2,69.7,29.99,ENE,66,1.0,6.0,58,0.00,,SCT080,0.00,VWS V14.01,2013-07-31 21:03:00,
2013-07-31 16:05:00,86.2,69.7,29.99,NE,47,4.0,6.0,58,0.00,,SCT080,0.00,VWS V14.01,2013-07-31 21:05:00,
2013-07-31 16:08:00,86.1,69.1,29.98,NNE,30,3.0,7.0,57,0.00,,SCT080,0.00,VWS V14.01,2013-07-31 21:08:00,
2013-07-31 16:10:00,86.0,69.0,29.98,NW,322,0.0,7.0,57,0.00,,SCT080,0.00,VWS V14.01,2013-07-31 21:10:00,
2013-07-31 16:13:00,86.1,70.1,29.99,ENE,61,3.0,6.0,59,0.00,,SCT080,0.00,VWS V14.01,2013-07-31 21:13:00,
2013-07-31 16:20:00,85.9,69.4,29.99,ENE,63,3.0,3.0,58,0.00,,SCT080,0.00,VWS V14.01,2013-07-31 21:20:00,
2013-07-31 16:25:00,86.0,69.0,29.99,NW,312,2.0,3.0,57,0.00,,SCT080,0.00,VWS V14.01,2013-07-31 21:25:00,
2013-07-31 16:30:00,85.9,68.9,29.99,North,10,4.0,5.0,57,0.00,,SCT080,0.00,VWS V14.01,2013-07-31 21:30:00,
2013-07-31 16:35:00,86.2,69.2,29.99,NE,48,2.0,4.0,57,0.00,,SCT200,0.00,VWS V14.01,2013-07-31 21:35:00,
2013-07-31 16:40:00,86.4,70.4,29.99,SW,229,0.0,2.0,59,0.00,,SCT200,0.00,VWS V14.01,2013-07-31 21:40:00,
2013-07-31 16:45:00,86.4,70.4,29.99,SSW,211,1.0,3.0,59,0.00,,SCT200,0.00,VWS V14.01,2013-07-31 21:45:00,
2013-07-31 16:50:00,86.2,69.2,29.99,East,95,2.0,5.0,57,0.00,,SCT200,0.00,VWS V14.01,2013-07-31 21:50:00,
2013-07-31 16:55:00,85.8,69.8,29.99,NNE,30,0.0,3.0,59,0.00,,SCT200,0.00,VWS V14.01,2013-07-31 21:55:00,
2013-07-31 17:00:00,85.7,69.2,29.98,ESE,103,0.0,3.0,58,0.00,,SCT200,0.00,VWS V14.01,2013-07-31 22:00:00,
2013-07-31 17:05:00,85.6,68.6,29.98,SE,141,0.0,5.0,57,0.00,,SCT200,0.00,VWS V14.01,2013-07-31 22:05:00,
2013-07-31 17:10:00,85.5,68.5,29.98,NE,46,0.0,3.0,57,0.00,,SCT200,0.00,VWS V14.01,2013-07-31 22:10:00,
2013-07-31 17:15:00,85.6,68.6,29.98,NE,37,3.0,4.0,57,0.00,,SCT200,0.00,VWS V14.01,2013-07-31 22:15:00,
2013-07-31 17:20:00,85.1,68.7,29.98,ESE,111,1.0,5.0,58,0.00,,SCT200,0.00,VWS V14.01,2013-07-31 22:20:00,
2013-07-31 17:25:00,84.9,68.5,29.98,NE,44,2.0,2.0,58,0.00,,SCT200,0.00,VWS V14.01,2013-07-31 22:25:00,
2013-07-31 17:30:00,84.8,68.9,29.98,NNW,335,1.0,3.0,59,0.00,,SCT200,0.00,VWS V14.01,2013-07-31 22:30:00,
2013-07-31 17:35:00,84.6,68.7,29.98,NNE,26,2.0,4.0,59,0.00,,BKN200,0.00,VWS V14.01,2013-07-31 22:35:00,
2013-07-31 17:40:00,84.6,68.7,29.99,NE,36,1.0,4.0,59,0.00,,BKN200,0.00,VWS V14.01,2013-07-31 22:40:00,
2013-07-31 17:45:00,84.3,67.9,29.98,NNE,17,2.0,5.0,58,0.00,,BKN200,0.00,VWS V14.01,2013-07-31 22:45:00,
2013-07-31 17:50:00,84.3,68.4,29.98,NE,39,1.0,2.0,59,0.00,,BKN200,0.00,VWS V14.01,2013-07-31 22:50:00,
2013-07-31 17:55:00,84.3,68.4,29.98,NW,323,3.0,3.0,59,0.00,,BKN200,0.00,VWS V14.01,2013-07-31 22:55:00,
2013-07-31 18:00:00,84.4,68.5,29.99,NNE,18,1.0,1.0,59,0.00,,BKN200,0.00,VWS V14.01,2013-07-31 23:00:00,
2013-07-31 18:05:00,84.5,68.1,29.99,NE,41,0.0,2.0,58,0.00,,BKN200,0.00,VWS V14.01,2013-07-31 23:05:00,
2013-07-31 18:10:00,84.4,68.5,29.98,NNE,32,0.0,1.0,59,0.00,,BKN200,0.00,VWS V14.01,2013-07-31 23:10:00,
2013-07-31 18:15:00,84.3,68.9,29.98,NE,44,0.0,0.0,60,0.00,,BKN200,0.00,VWS V14.01,2013-07-31 23:15:00,
2013-07-31 18:20:00,84.0,68.6,29.98,NNW,333,0.0,1.0,60,0.00,,BKN200,0.00,VWS V14.01,2013-07-31 23:20:00,
2013-07-31 18:25:00,83.8,68.9,29.98,NNW,342,0.0,0.0,61,0.00,,BKN200,0.00,VWS V14.01,2013-07-31 23:25:00,
2013-07-31 18:30:00,83.7,68.8,29.98,NNW,343,0.0,0.0,61,0.00,,BKN200,0.00,VWS V14.01,2013-07-31 23:30:00,
2013-07-31 18:35:00,83.7,68.8,29.98,NNW,342,0.0,0.0,61,0.00,,BKN200,0.00,VWS V14.01,2013-07-31 23:35:00,
2013-07-31 18:40:00,83.6,69.2,29.98,NE,36,0.0,1.0,62,0.00,,BKN200,0.00,VWS V14.01,2013-07-31 23:40:00,
2013-07-31 18:45:00,83.6,68.7,29.97,NNE,13,0.0,3.0,61,0.00,,BKN200,0.00,VWS V14.01,2013-07-31 23:45:00,
2013-07-31 18:50:00,83.5,69.1,29.97,ENE,75,1.0,2.0,62,0.00,,BKN200,0.00,VWS V14.01,2013-07-31 23:50:00,
2013-07-31 18:55:00,83.3,68.9,29.98,ENE,65,2.0,3.0,62,0.00,,BKN200,0.00,VWS V14.01,2013-07-31 23:55:00,
2013-07-31 19:00:00,83.2,69.3,29.98,ENE,58,0.0,1.0,63,0.00,,BKN200,0.00,VWS V14.01,2013-08-01 00:00:00,
2013-07-31 19:05:00,83.0,68.7,29.98,ENE,70,1.0,3.0,62,0.00,,BKN200,0.00,VWS V14.01,2013-08-01 00:05:00,
2013-07-31 19:10:00,82.9,68.6,29.98,NE,35,2.0,4.0,62,0.00,,BKN200,0.00,VWS V14.01,2013-08-01 00:10:00,
2013-07-31 19:15:00,82.8,68.9,29.98,NE,34,1.0,3.0,63,0.00,,BKN200,0.00,VWS V14.01,2013-08-01 00:15:00,
2013-07-31 19:20:00,82.8,68.9,29.98,NE,39,0.0,3.0,63,0.00,,BKN200,0.00,VWS V14.01,2013-08-01 00:20:00,
2013-07-31 19:25:00,82.9,69.5,29.98,NNE,20,0.0,3.0,64,0.00,,BKN200,0.00,VWS V14.01,2013-08-01 00:25:00,
2013-07-31 19:30:00,82.8,69.4,29.99,East,79,0.0,2.0,64,0.00,,BKN200,0.00,VWS V14.01,2013-08-01 00:30:00,
2013-07-31 19:35:00,82.6,69.7,29.98,ENE,70,1.0,3.0,65,0.00,,BKN200,0.00,VWS V14.01,2013-08-01 00:35:00,
2013-07-31 19:40:00,82.4,69.5,29.98,North,355,2.0,4.0,65,0.00,,BKN200,0.00,VWS V14.01,2013-08-01 00:40:00,
2013-07-31 19:45:00,82.2,69.7,29.97,NE,49,0.0,2.0,66,0.00,,BKN200,0.00,VWS V14.01,2013-08-01 00:45:00,
2013-07-31 19:50:00,82.0,69.5,29.97,NE,42,2.0,2.0,66,0.00,,BKN200,0.00,VWS V14.01,2013-08-01 00:50:00,
2013-07-31 19:55:00,81.9,69.4,29.98,NNE,18,2.0,3.0,66,0.00,,BKN200,0.00,VWS V14.01,2013-08-01 00:55:00,
2013-07-31 20:00:00,81.8,69.8,29.97,NNE,17,2.0,2.0,67,0.00,,BKN200,0.00,VWS V14.01,2013-08-01 01:00:00,
2013-07-31 20:05:00,81.6,69.2,29.98,East,82,1.0,3.0,66,0.00,,BKN200,0.00,VWS V14.01,2013-08-01 01:05:00,
2013-07-31 20:10:00,81.5,69.1,29.98,East,82,0.0,1.0,66,0.00,,BKN200,0.00,VWS V14.01,2013-08-01 01:10:00,
2013-07-31 20:15:00,81.4,69.0,29.99,East,81,0.0,1.0,66,0.00,,BKN200,0.00,VWS V14.01,2013-08-01 01:15:00,
2013-07-31 20:20:00,81.3,68.9,29.99,ENE,61,0.0,2.0,66,0.00,,BKN200,0.00,VWS V14.01,2013-08-01 01:20:00,
2013-07-31 20:25:00,81.1,68.7,29.98,ENE,61,0.0,1.0,66,0.00,,BKN200,0.00,VWS V14.01,2013-08-01 01:25:00,
2013-07-31 20:30:00,81.0,68.6,29.98,NE,35,1.0,2.0,66,0.00,,BKN200,0.00,VWS V14.01,2013-08-01 01:30:00,
2013-07-31 20:35:00,80.8,68.8,29.98,NE,37,0.0,1.0,67,0.00,,BKN200,0.00,VWS V14.01,2013-08-01 01:35:00,
2013-07-31 20:39:00,80.5,69.0,29.98,NE,37,0.0,1.0,68,0.00,,BKN200,0.00,VWS V14.01,2013-08-01 01:39:00,
2013-07-31 20:44:00,80.1,69.0,29.98,NE,37,0.0,0.0,69,0.00,,BKN200,0.00,VWS V14.01,2013-08-01 01:44:00,
2013-07-31 20:49:00,79.8,68.7,29.98,NE,37,0.0,1.0,69,0.00,,BKN200,0.00,VWS V14.01,2013-08-01 01:49:00,
2013-07-31 20:54:00,79.5,68.4,29.99,NE,37,0.0,0.0,69,0.00,,BKN200,0.00,VWS V14.01,2013-08-01 01:54:00,
2013-07-31 20:59:00,79.0,68.4,29.99,NE,37,0.0,0.0,70,0.00,,BKN200,0.00,VWS V14.01,2013-08-01 01:59:00,
2013-07-31 21:04:00,78.5,68.3,29.99,NE,37,0.0,0.0,71,0.00,,BKN200,0.00,VWS V14.01,2013-08-01 02:04:00,
2013-07-31 21:09:00,78.0,68.7,29.99,NE,37,0.0,0.0,73,0.00,,BKN200,0.00,VWS V14.01,2013-08-01 02:09:00,
2013-07-31 21:14:00,77.7,69.5,30.00,NE,37,0.0,0.0,76,0.00,,BKN200,0.00,VWS V14.01,2013-08-01 02:14:00,
2013-07-31 21:19:00,77.4,70.0,30.00,NE,37,0.0,0.0,78,0.00,,BKN200,0.00,VWS V14.01,2013-08-01 02:19:00,
2013-07-31 21:24:00,77.1,69.0,30.01,NE,37,0.0,0.0,76,0.00,,BKN200,0.00,VWS V14.01,2013-08-01 02:24:00,
2013-07-31 21:29:00,76.8,69.8,30.01,NE,37,0.0,0.0,79,0.00,,BKN200,0.00,VWS V14.01,2013-08-01 02:29:00,
2013-07-31 21:34:00,76.5,69.5,30.02,NE,37,0.0,0.0,79,0.00,,SCT200,0.00,VWS V14.01,2013-08-01 02:34:00,
2013-07-31 21:39:00,76.4,69.8,30.02,NE,37,0.0,0.0,80,0.00,,SCT200,0.00,VWS V14.01,2013-08-01 02:39:00,
2013-07-31 21:44:00,76.2,69.6,30.02,NE,37,0.0,0.0,80,0.00,,SCT200,0.00,VWS V14.01,2013-08-01 02:44:00,
2013-07-31 21:49:00,76.0,70.1,30.03,NE,37,0.0,0.0,82,0.00,,SCT200,0.00,VWS V14.01,2013-08-01 02:49:00,
2013-07-31 21:54:00,75.8,69.9,30.03,NE,37,0.0,0.0,82,0.00,,SCT200,0.00,VWS V14.01,2013-08-01 02:54:00,
2013-07-31 21:59:00,75.7,69.8,30.02,NE,37,0.0,0.0,82,0.00,,SCT200,0.00,VWS V14.01,2013-08-01 02:59:00,
2013-07-31 22:04:00,75.5,69.6,30.03,NE,37,0.0,0.0,82,0.00,,SCT200,0.00,VWS V14.01,2013-08-01 03:04:00,
2013-07-31 22:09:00,75.4,69.9,30.03,NE,37,0.0,0.0,83,0.00,,SCT200,0.00,VWS V14.01,2013-08-01 03:09:00,
2013-07-31 22:14:00,75.3,69.8,30.02,NE,37,0.0,0.0,83,0.00,,SCT200,0.00,VWS V14.01,2013-08-01 03:14:00,
2013-07-31 22:19:00,75.3,70.1,30.03,NE,37,0.0,0.0,84,0.00,,SCT200,0.00,VWS V14.01,2013-08-01 03:19:00,
2013-07-31 22:24:00,75.2,70.0,30.02,NE,37,0.0,0.0,84,0.00,,SCT200,0.00,VWS V14.01,2013-08-01 03:24:00,
2013-07-31 22:29:00,75.1,70.3,30.02,NE,37,0.0,0.0,85,0.00,,SCT200,0.00,VWS V14.01,2013-08-01 03:29:00,
2013-07-31 22:34:00,75.1,70.3,30.02,NE,37,0.0,1.0,85,0.00,,BKN200,0.00,VWS V14.01,2013-08-01 03:34:00,
2013-07-31 22:39:00,74.9,70.1,30.02,NE,37,0.0,0.0,85,0.00,,BKN200,0.00,VWS V14.01,2013-08-01 03:39:00,
2013-07-31 22:44:00,74.7,70.2,30.02,NE,37,0.0,0.0,86,0.00,,BKN200,0.00,VWS V14.01,2013-08-01 03:44:00,
2013-07-31 22:49:00,74.3,69.8,30.02,NE,37,0.0,0.0,86,0.00,,BKN200,0.00,VWS V14.01,2013-08-01 03:49:00,
2013-07-31 22:54:00,74.0,69.9,30.01,NE,37,0.0,0.0,87,0.00,,BKN200,0.00,VWS V14.01,2013-08-01 03:54:00,
2013-07-31 22:59:00,73.8,69.7,30.02,NE,37,0.0,0.0,87,0.00,,BKN200,0.00,VWS V14.01,2013-08-01 03:59:00,
2013-07-31 23:01:00,73.7,69.6,30.02,NE,37,0.0,0.0,87,0.00,,BKN200,0.00,VWS V14.01,2013-08-01 04:01:00,
2013-07-31 23:02:00,73.6,69.5,30.02,NE,37,0.0,0.0,87,0.00,,BKN200,0.00,VWS V14.01,2013-08-01 04:02:00,
2013-07-31 23:07:00,73.3,69.2,30.01,NE,37,0.0,0.0,87,0.00,,BKN200,0.00,VWS V14.01,2013-08-01 04:07:00,
2013-07-31 23:12:00,73.1,69.7,30.01,NE,37,0.0,0.0,89,0.00,,BKN200,0.00,VWS V14.01,2013-08-01 04:12:00,
2013-07-31 23:17:00,73.4,70.0,30.01,NE,37,0.0,0.0,89,0.00,,BKN200,0.00,VWS V14.01,2013-08-01 04:17:00,
2013-07-31 23:22:00,73.7,69.9,30.01,NE,37,0.0,0.0,88,0.00,,BKN200,0.00,VWS V14.01,2013-08-01 04:22:00,
2013-07-31 23:27:00,73.6,69.8,30.01,NE,37,0.0,0.0,88,0.00,,BKN200,0.00,VWS V14.01,2013-08-01 04:27:00,
2013-07-31 23:32:00,73.3,69.9,30.01,NE,37,0.0,0.0,89,0.00,,SCT200,0.00,VWS V14.01,2013-08-01 04:32:00,
2013-07-31 23:37:00,73.0,69.9,30.01,NE,37,0.0,0.0,90,0.00,,SCT200,0.00,VWS V14.01,2013-08-01 04:37:00,
2013-07-31 23:42:00,72.9,69.8,30.01,NE,37,0.0,0.0,90,0.00,,SCT200,0.00,VWS V14.01,2013-08-01 04:42:00,
2013-07-31 23:47:00,72.6,69.8,30.00,NE,37,0.0,0.0,91,0.00,,SCT200,0.00,VWS V14.01,2013-08-01 04:47:00,
2013-07-31 23:52:00,72.4,69.6,30.00,NE,37,0.0,0.0,91,0.00,,SCT200,0.00,VWS V14.01,2013-08-01 04:52:00,
2013-07-31 23:57:00,72.5,69.7,30.00,NE,37,0.0,0.0,91,0.00,,SCT200,0.00,VWS V14.01,2013-08-01 04:57:00,